Location: Rounton
(54.4000°N, 1.3500°W)
Time: 05:18:25
(UTC+00:00)

A-11 Canister half - Pass Details

Date: 08 December 2021
Orbit: 1524 x 1684 km, 47.3° (Epoch: 17 January)

Event Time Altitude Azimuth Distance (km) Brightness Sun altitude
Exits shadow 02:00:16 25° 101° (E) 2,890 10.5 -50.8°
Drops below altitude 10° 02:03:56 10° 91° (E) 3,903 11.4 -50.4°
Sets 02:07:09 0° 86° (E) 4,873 12.1 -50.1°
